Starlink 2549

operational
NORAD ID: 48314 Int'l Des: 2021-036 Owner: SPXS Country: US Constellation: starlink
LEOCIRCULARSTARLINK_TYPE

About Starlink 2549

Description loading...

Live Position

Loading 3D Globe...

Upcoming Passes

Altitude History

Altitude vs Time

uPlot chart will show altitude changes over time

Two-Line Element Set

1 48314U 21036AQ 26063.00001157 .01884830 00000-0 79833-1 0 9996
2 48314 53.1110 116.8457 0000885 85.4145 236.1860 15.19337893 5799
Epoch: Mar 4, 2026 • Age: 18 hours

Current Status

Altitude 500.0 km
Velocity 7.62 km/s
Sub-Earth Point 9.55°N, 54.62°E
Launch Date Apr 29, 2021
Age 4.8 years
Type internet

Technical Details

Classification Payload
Mass 260.00 kg
Dry Mass 248.00 kg
Total Mass 260.00 kg
Length 0.20 m
Diameter 2.80 m
Span 9.00 m
Shape Box + pan
Manufacturer SPXS
Bus Type Starlink
Phase Status In Orbit
Owner/State SPXS/US

Large Constellations

Loading constellations...